Date String (YYYY-MM-DD hh:mm:ss) UTC,Instrument flags,absolute air pressure of the measurement (hPa),sample flow rate (lpm),inlet stack bypass flow (lpm),air temperature of the measurement (°C),ambient temperature measured by the external sensor (°C),aerosol sample conditioner tube jacket temperature (°C),OPC LED temperature (°C),internal box temperature (°C),relative humidity of the measurement (%),span deviation,mass concentration of particles derived from Lorenz-Mie calculation of OPC scattering (μg/m³),mass concentration of particles derived from Lorenz-Mie calculation of OPC scattering (μg/m³),mass concentration of particles derived from Lorenz-Mie calculation of OPC scattering (μg/m³)
DateTimeUTC,F1_M11,P_M11,Q1_M11,Q2_M11,T1_M11,T2_M11,T3_M11,T4_M11,T5_M11,U1_M11,ZSPAN_M11,X0_M11,X2_M11,X1_M11
2023-07-08 17:00:00,SystemResetWarning,0830.6,5.00,000.00,030.0,026.7,000.0,038.4,030.8,33.0,-000.6,0013.63,0009.43,0008.85
2023-07-08 17:01:00,SystemResetWarning,0830.5,5.00,000.00,030.0,027.1,000.0,038.4,030.9,32.4,-001.3,0013.54,0009.50,0008.89
2023-07-08 17:02:00,SystemResetWarning,0830.5,4.99,000.00,030.0,027.3,000.0,038.4,030.9,32.7,-001.7,0013.52,0009.50,0008.90
2023-07-08 17:03:00,SystemResetWarning,0830.4,5.02,000.00,030.0,027.5,000.0,038.4,031.0,33.6,-002.0,0013.57,0009.51,0008.90
2023-07-08 17:04:00,SystemResetWarning,0830.7,5.01,000.00,030.0,027.7,000.0,038.4,031.0,32.7,-001.9,0013.43,0009.50,0008.89
2023-07-08 17:05:00,SystemResetWarning,0830.6,4.99,000.00,030.0,027.9,000.0,038.4,031.1,33.2,-001.9,0013.45,0009.52,0008.93
2023-07-08 17:06:00,SystemResetWarning,0830.5,4.99,000.00,030.1,028.0,000.0,038.4,031.2,33.1,-002.2,0013.33,0009.49,0008.92
2023-07-08 17:07:00,SystemResetWarning,0830.5,5.00,000.00,030.1,027.2,000.0,038.3,031.1,32.9,-002.0,0013.40,0009.46,0008.88
2023-07-08 17:08:00,SystemResetWarning,0830.6,5.00,000.00,030.0,025.7,000.0,038.2,030.9,33.2,-001.6,0013.33,0009.45,0008.88
2023-07-08 17:09:00,SystemResetWarning,0830.7,5.02,000.00,029.9,025.1,000.0,038.1,030.8,33.7,-001.5,0013.59,0009.47,0008.88
2023-07-08 17:10:00,SystemResetWarning,0830.5,5.01,000.00,029.8,025.2,000.0,038.1,030.6,34.0,-001.8,0013.67,0009.45,0008.87
2023-07-08 17:11:00,SystemResetWarning,0830.6,5.00,000.00,029.7,025.6,000.0,038.1,030.5,34.1,-001.9,0013.70,0009.47,0008.86
2023-07-08 17:12:00,SystemResetWarning,0830.4,4.98,000.00,029.7,026.1,000.0,038.1,030.6,34.9,-001.6,0013.69,0009.41,0008.82
2023-07-08 17:13:00,SystemResetWarning,0830.4,5.01,000.00,029.7,026.5,000.0,038.1,030.7,36.1,-001.3,0013.89,0009.42,0008.80
2023-07-08 17:14:00,SystemResetWarning,0830.4,4.99,000.00,029.9,026.8,000.0,038.1,030.9,34.7,-001.3,0013.93,0009.40,0008.80
2023-07-08 17:15:00,SystemResetWarning,0830.5,5.02,000.00,030.1,027.1,000.0,038.1,031.0,34.7,-001.4,0014.42,0009.48,0008.85
2023-07-08 17:16:00,SystemResetWarning,0830.6,4.97,000.00,030.2,027.4,000.0,038.2,031.1,34.0,-001.5,0014.74,0009.57,0008.91
2023-07-08 17:17:00,SystemResetWarning,0830.5,5.02,000.00,030.3,027.6,000.0,038.2,031.1,33.6,-001.7,0014.85,0009.66,0008.97
2023-07-08 17:18:00,SystemResetWarning,0830.4,5.00,000.00,030.4,027.8,000.0,038.3,031.1,33.6,-001.9,0014.80,0009.70,0009.01
2023-07-08 17:19:00,SystemResetWarning,0830.6,5.00,000.00,030.5,027.9,000.0,038.3,031.2,33.2,-002.2,0014.84,0009.73,0009.02
2023-07-08 17:20:00,SystemResetWarning,0830.5,4.98,000.00,030.5,026.8,000.0,038.3,031.1,33.0,-002.5,0014.61,0009.70,0009.02
2023-07-08 17:21:00,SystemResetWarning,0830.6,5.00,000.00,030.5,025.4,000.0,038.2,031.0,33.8,-002.2,0014.98,0009.73,0009.04
2023-07-08 17:22:00,SystemResetWarning,0830.7,5.00,000.00,030.4,025.1,000.0,038.1,030.8,33.3,-002.1,0015.80,0009.77,0009.04
2023-07-08 17:23:00,SystemResetWarning,0830.5,5.01,000.00,030.3,025.3,000.0,038.2,030.6,33.4,-002.2,0016.66,0009.82,0009.07
2023-07-08 17:24:00,SystemResetWarning,0830.8,5.00,000.00,030.2,025.7,000.0,038.2,030.6,33.4,-002.1,0017.06,0009.73,0009.02
2023-07-08 17:25:00,SystemResetWarning,0830.7,5.00,000.00,030.1,026.1,000.0,038.3,030.7,33.4,-001.9,0017.15,0009.71,0009.00
2023-07-08 17:26:00,SystemResetWarning,0830.5,5.00,000.00,030.1,026.5,000.0,038.3,030.7,33.8,-001.9,0017.31,0009.70,0008.97
2023-07-08 17:27:00,SystemResetWarning,0830.5,5.00,000.00,030.1,026.9,000.0,038.3,030.8,34.6,-001.7,0016.96,0009.62,0008.91
2023-07-08 17:28:00,SystemResetWarning,0830.4,4.99,000.00,030.1,027.2,000.0,038.4,030.9,34.4,-001.3,0016.85,0009.57,0008.91
2023-07-08 17:29:00,SystemResetWarning,0830.4,5.00,000.00,030.1,027.4,000.0,038.4,031.0,33.9,-001.3,0016.96,0009.57,0008.89
2023-07-08 17:30:00,SystemResetWarning,0830.4,5.02,000.00,030.2,027.7,000.0,038.4,031.0,35.6,-001.0,0017.09,0009.57,0008.90
2023-07-08 17:31:00,SystemResetWarning,0830.5,4.99,000.00,030.3,027.8,000.0,038.4,031.2,34.4,-000.9,0016.98,0009.53,0008.87
2023-07-08 17:32:00,SystemResetWarning,0830.4,4.98,000.00,030.4,027.2,000.0,038.3,031.2,34.9,-001.4,0016.77,0009.53,0008.86
2023-07-08 17:33:00,SystemResetWarning,0830.4,5.03,000.00,030.5,025.6,000.0,038.2,031.0,33.6,-001.9,0016.39,0009.52,0008.87
2023-07-08 17:34:00,SystemResetWarning,0830.4,4.98,000.00,030.6,025.0,000.0,038.1,030.9,32.9,-001.9,0015.55,0009.54,0008.90
2023-07-08 17:35:00,SystemResetWarning,0830.5,5.02,000.00,030.5,025.2,000.0,038.2,030.7,32.8,-002.0,0014.98,0009.60,0008.94
2023-07-08 17:36:00,SystemResetWarning,0830.6,5.00,000.00,030.4,025.6,000.0,038.2,030.7,33.3,-002.2,0014.96,0009.65,0008.97
2023-07-08 17:37:00,SystemResetWarning,0830.5,5.00,000.00,030.4,026.0,000.0,038.3,030.7,32.6,-002.3,0014.36,0009.61,0008.95
2023-07-08 17:38:00,SystemResetWarning,0830.5,5.00,000.00,030.4,026.4,000.0,038.4,030.8,33.2,-002.4,0014.16,0009.60,0008.93
2023-07-08 17:39:00,SystemResetWarning,0830.4,5.00,000.00,030.4,026.8,000.0,038.4,030.8,33.2,-002.4,0014.13,0009.59,0008.89
2023-07-08 17:40:00,SystemResetWarning,0830.5,5.00,000.00,030.4,027.1,000.0,038.4,030.9,33.5,-002.4,0014.14,0009.61,0008.88
2023-07-08 17:41:00,SystemResetWarning,0830.6,4.99,000.00,030.4,027.4,000.0,038.5,031.0,34.4,-002.5,0014.17,0009.64,0008.89
2023-07-08 17:42:00,SystemResetWarning,0830.7,5.00,000.00,030.4,027.6,000.0,038.5,031.0,34.0,-002.5,0014.20,0009.71,0008.93
2023-07-08 17:43:00,SystemResetWarning,0830.5,5.00,000.00,030.4,027.8,000.0,038.5,031.1,33.6,-002.4,0015.04,0009.79,0009.00
2023-07-08 17:44:00,SystemResetWarning,0830.4,4.99,000.00,030.5,027.9,000.0,038.5,031.2,34.5,-001.9,0014.95,0009.85,0009.05
2023-07-08 17:45:00,SystemResetWarning,0830.4,4.99,000.00,030.5,026.9,000.0,038.4,031.1,34.2,-001.6,0015.02,0009.87,0009.05
2023-07-08 17:46:00,SystemResetWarning,0830.4,5.01,000.00,030.4,025.5,000.0,038.3,030.9,34.1,-001.6,0015.09,0009.92,0009.06
2023-07-08 17:47:00,SystemResetWarning,0830.4,5.01,000.00,030.3,025.1,000.0,038.3,030.7,34.4,-001.4,0015.15,0009.96,0009.11
2023-07-08 17:48:00,SystemResetWarning,0830.4,4.99,000.00,030.2,025.3,000.0,038.3,030.6,34.8,-001.2,0015.13,0009.97,0009.14
2023-07-08 17:49:00,SystemResetWarning,0830.4,5.01,000.00,030.2,025.7,000.0,038.3,030.6,33.5,-001.2,0015.11,0009.98,0009.14
2023-07-08 17:50:00,SystemResetWarning,0830.4,5.00,000.00,030.2,026.1,000.0,038.3,030.7,33.8,-001.1,0015.11,0009.93,0009.10
2023-07-08 17:51:00,SystemResetWarning,0830.3,4.98,000.00,030.1,026.5,000.0,038.3,030.8,35.1,-001.3,0015.35,0009.89,0009.08
2023-07-08 17:52:00,SystemResetWarning,0830.4,5.04,000.00,030.2,026.9,000.0,038.4,030.9,34.2,-001.6,0015.34,0009.88,0009.08
2023-07-08 17:53:00,SystemResetWarning,0830.4,4.96,000.00,030.4,027.2,000.0,038.4,031.0,32.7,-001.5,0015.56,0009.88,0009.06
2023-07-08 17:54:00,SystemResetWarning,0830.3,5.01,000.00,030.4,027.4,000.0,038.4,031.1,32.8,-001.5,0014.80,0009.82,0009.01
2023-07-08 17:55:00,SystemResetWarning,0830.3,5.01,000.00,030.5,027.7,000.0,038.4,031.1,32.1,-001.6,0014.15,0009.70,0008.92
2023-07-08 17:56:00,SystemResetWarning,0830.3,4.98,000.00,030.5,027.9,000.0,038.5,031.2,32.7,-001.7,0014.07,0009.60,0008.84
2023-07-08 17:57:00,SystemResetWarning,0830.3,5.00,000.00,030.5,027.3,000.0,038.4,031.2,32.2,-001.8,0014.08,0009.50,0008.78
2023-07-08 17:58:00,SystemResetWarning,0830.2,5.00,000.00,030.5,025.8,000.0,038.3,031.0,31.9,-001.6,0014.11,0009.45,0008.75
2023-07-08 17:59:00,SystemResetWarning,0830.2,5.00,000.00,030.5,025.1,000.0,038.2,030.8,33.1,-001.5,0014.08,0009.44,0008.73
